Eastsound, WA
on Sunday, February 3, 2013

Sunday
Previous Day Next Day
Daily Summary
 ActualAverage (KBLI)Record (KBLI)
Temperature
Mean Temperature °F / °C 40°F / 4°C  
Max Temperature 44°F / 7°C 47°F / 8°C 60°F / 15°C (1992)
Min Temperature 39°F / 4°C 33°F / 1°C 5°F / -15°C (1950)
Degree Days
Heating Degree Days 24 25  
Month to date heating degree days 75  
Cooling Degree Days 0 0  
Month to date cooling degree days 0  
Year to date cooling degree days 0  
Moisture
Dew Point 41°F / 5°C   
Average Humidity 93    
Maximum Humidity 100    
Minimum Humidity 81    
Precipitation
Precipitation 0.00 in / 0.00 cm 0.12 in / 3.05 cm 1.39 in / 3.53 cm (1967)
Month to date precipitation 0.35  
Year to date precipitation 5.02  
Wind
Wind Speed 4 mph / 6 km/h   
Max Wind Speed 12 mph / 19 km/h   
Max Gust Speed mph / km/h   
Visibility 8 miles / 14 kilometers   
Events Rain   

Key: T is trace of precipitation, MM is missing value
Source: NWS Daily Summary
Time(PST)TemperatureDew PointHumidity Pressure Visibility Wind DirectionWind SpeedGust SpeedPrecipitationEvents Conditions
12:15 AM 41.0°F / 5.0°C 39.2°F / 4.0°C 93% 30.27 in / 1024.9 hPa 10.0 miles / 16.1 kilometers Calm Calm - N/A   Overcast
12:35 AM 41.0°F / 5.0°C 39.2°F / 4.0°C 93% 30.27 in / 1024.9 hPa 10.0 miles / 16.1 kilometers Calm Calm - N/A   Overcast
12:55 AM 41.0°F / 5.0°C 39.2°F / 4.0°C 93% 30.26 in / 1024.6 hPa 10.0 miles / 16.1 kilometers Calm Calm - N/A   Overcast
1:15 AM 41.0°F / 5.0°C 39.2°F / 4.0°C 93% 30.25 in / 1024.3 hPa 10.0 miles / 16.1 kilometers Calm Calm - N/A   Overcast
1:35 AM 41.0°F / 5.0°C 39.2°F / 4.0°C 93% 30.24 in / 1023.9 hPa 10.0 miles / 16.1 kilometers South 4.6 mph / 7.4 km/h - N/A   Overcast
1:55 AM 41.0°F / 5.0°C 39.2°F / 4.0°C 93% 30.25 in / 1024.3 hPa 10.0 miles / 16.1 kilometers South 5.8 mph / 9.3 km/h - N/A   Overcast
2:15 AM 41.0°F / 5.0°C 39.2°F / 4.0°C 93% 30.26 in / 1024.6 hPa 10.0 miles / 16.1 kilometers SSW 8.1 mph / 13.0 km/h - N/A   Overcast
2:35 AM 41.0°F / 5.0°C 39.2°F / 4.0°C 93% 30.25 in / 1024.3 hPa 10.0 miles / 16.1 kilometers South 8.1 mph / 13.0 km/h - N/A   Overcast
2:55 AM 41.0°F / 5.0°C 39.2°F / 4.0°C 93% 30.24 in / 1023.9 hPa 10.0 miles / 16.1 kilometers South 5.8 mph / 9.3 km/h - N/A   Overcast
3:15 AM 41.0°F / 5.0°C 39.2°F / 4.0°C 93% 30.25 in / 1024.3 hPa 10.0 miles / 16.1 kilometers South 3.5 mph / 5.6 km/h - N/A   Mostly Cloudy
3:35 AM 39.2°F / 4.0°C 39.2°F / 4.0°C 100% 30.25 in / 1024.3 hPa 10.0 miles / 16.1 kilometers South 3.5 mph / 5.6 km/h - N/A   Partly Cloudy
3:55 AM 39.2°F / 4.0°C 39.2°F / 4.0°C 100% 30.25 in / 1024.3 hPa 10.0 miles / 16.1 kilometers South 3.5 mph / 5.6 km/h - N/A   Partly Cloudy
4:15 AM 39.2°F / 4.0°C 39.2°F / 4.0°C 100% 30.25 in / 1024.3 hPa 10.0 miles / 16.1 kilometers South 4.6 mph / 7.4 km/h - N/A   Scattered Clouds
4:35 AM 39.2°F / 4.0°C 37.4°F / 3.0°C 93% 30.24 in / 1023.9 hPa 10.0 miles / 16.1 kilometers South 3.5 mph / 5.6 km/h - N/A   Partly Cloudy
4:55 AM 39.2°F / 4.0°C 37.4°F / 3.0°C 93% 30.24 in / 1023.9 hPa 10.0 miles / 16.1 kilometers Calm Calm - N/A   Scattered Clouds
5:15 AM 39.2°F / 4.0°C 39.2°F / 4.0°C 100% 30.25 in / 1024.3 hPa 10.0 miles / 16.1 kilometers South 4.6 mph / 7.4 km/h - N/A   Mostly Cloudy
5:35 AM 41.0°F / 5.0°C 39.2°F / 4.0°C 93% 30.26 in / 1024.6 hPa 10.0 miles / 16.1 kilometers Calm Calm - N/A   Overcast
5:55 AM 41.0°F / 5.0°C 39.2°F / 4.0°C 93% 30.26 in / 1024.6 hPa 10.0 miles / 16.1 kilometers South 3.5 mph / 5.6 km/h - N/A   Overcast
6:15 AM 41.0°F / 5.0°C 39.2°F / 4.0°C 93% 30.25 in / 1024.3 hPa 10.0 miles / 16.1 kilometers South 3.5 mph / 5.6 km/h - N/A   Overcast
6:55 AM 41.0°F / 5.0°C 39.2°F / 4.0°C 93% 30.25 in / 1024.3 hPa 7.0 miles / 11.3 kilometers South 8.1 mph / 13.0 km/h - N/A   Overcast
7:15 AM 39.2°F / 4.0°C 39.2°F / 4.0°C 100% 30.25 in / 1024.3 hPa 7.0 miles / 11.3 kilometers SSE 4.6 mph / 7.4 km/h - N/A   Overcast
7:35 AM 39.2°F / 4.0°C 39.2°F / 4.0°C 100% 30.25 in / 1024.3 hPa 5.0 miles / 8.0 kilometers SSE 3.5 mph / 5.6 km/h - N/A   Overcast
7:55 AM 39.2°F / 4.0°C 39.2°F / 4.0°C 100% 30.26 in / 1024.6 hPa 5.0 miles / 8.0 kilometers South 3.5 mph / 5.6 km/h - N/A   Overcast
8:15 AM 39.2°F / 4.0°C 39.2°F / 4.0°C 100% 30.27 in / 1024.9 hPa 6.0 miles / 9.7 kilometers South 5.8 mph / 9.3 km/h - N/A   Overcast
8:35 AM 39.2°F / 4.0°C 39.2°F / 4.0°C 100% 30.27 in / 1024.9 hPa 5.0 miles / 8.0 kilometers Calm Calm - N/A   Overcast
8:55 AM 41.0°F / 5.0°C 39.2°F / 4.0°C 93% 30.27 in / 1024.9 hPa 6.0 miles / 9.7 kilometers SSE 3.5 mph / 5.6 km/h - N/A   Overcast
9:15 AM 41.0°F / 5.0°C 39.2°F / 4.0°C 93% 30.27 in / 1024.9 hPa 8.0 miles / 12.9 kilometers SSE 3.5 mph / 5.6 km/h - N/A   Overcast
9:35 AM 41.0°F / 5.0°C 39.2°F / 4.0°C 93% 30.26 in / 1024.6 hPa 8.0 miles / 12.9 kilometers South 5.8 mph / 9.3 km/h - N/A   Overcast
9:55 AM 41.0°F / 5.0°C 39.2°F / 4.0°C 93% 30.25 in / 1024.3 hPa 9.0 miles / 14.5 kilometers South 4.6 mph / 7.4 km/h - N/A   Overcast
10:15 AM 41.0°F / 5.0°C 39.2°F / 4.0°C 93% 30.27 in / 1024.9 hPa 10.0 miles / 16.1 kilometers SSW 11.5 mph / 18.5 km/h - N/A   Overcast
10:35 AM 42.8°F / 6.0°C 39.2°F / 4.0°C 87% 30.28 in / 1025.3 hPa 10.0 miles / 16.1 kilometers SSW 8.1 mph / 13.0 km/h - N/A   Overcast
10:55 AM 44.6°F / 7.0°C 39.2°F / 4.0°C 81% 30.28 in / 1025.3 hPa 10.0 miles / 16.1 kilometers South 5.8 mph / 9.3 km/h - N/A   Overcast
11:15 AM 44.6°F / 7.0°C 41.0°F / 5.0°C 87% 30.27 in / 1024.9 hPa 10.0 miles / 16.1 kilometers South 8.1 mph / 13.0 km/h - N/A   Mostly Cloudy
11:35 AM 44.6°F / 7.0°C 41.0°F / 5.0°C 87% 30.26 in / 1024.6 hPa 10.0 miles / 16.1 kilometers South 9.2 mph / 14.8 km/h - N/A   Scattered Clouds
11:55 AM 44.6°F / 7.0°C 41.0°F / 5.0°C 87% 30.27 in / 1024.9 hPa 10.0 miles / 16.1 kilometers South 8.1 mph / 13.0 km/h - N/A   Partly Cloudy
12:15 PM 44.6°F / 7.0°C 41.0°F / 5.0°C 87% 30.26 in / 1024.6 hPa 10.0 miles / 16.1 kilometers South 8.1 mph / 13.0 km/h - N/A   Mostly Cloudy
12:35 PM 44.6°F / 7.0°C 41.0°F / 5.0°C 87% 30.26 in / 1024.6 hPa 10.0 miles / 16.1 kilometers South 8.1 mph / 13.0 km/h - N/A   Overcast
12:55 PM 44.6°F / 7.0°C 41.0°F / 5.0°C 87% 30.24 in / 1023.9 hPa 9.0 miles / 14.5 kilometers South 5.8 mph / 9.3 km/h - N/A Rain Light Rain
1:15 PM 44.6°F / 7.0°C 41.0°F / 5.0°C 87% 30.23 in / 1023.6 hPa 9.0 miles / 14.5 kilometers South 9.2 mph / 14.8 km/h - N/A   Partly Cloudy
1:55 PM 44.6°F / 7.0°C 41.0°F / 5.0°C 87% 30.23 in / 1023.6 hPa 10.0 miles / 16.1 kilometers South 9.2 mph / 14.8 km/h - N/A   Overcast
2:15 PM 44.6°F / 7.0°C 41.0°F / 5.0°C 87% 30.22 in / 1023.2 hPa 10.0 miles / 16.1 kilometers South 5.8 mph / 9.3 km/h - N/A   Mostly Cloudy
2:35 PM 44.6°F / 7.0°C 41.0°F / 5.0°C 87% 30.22 in / 1023.2 hPa 9.0 miles / 14.5 kilometers South 8.1 mph / 13.0 km/h - N/A Rain Light Rain
2:55 PM 44.6°F / 7.0°C 41.0°F / 5.0°C 87% 30.22 in / 1023.2 hPa 6.0 miles / 9.7 kilometers South 5.8 mph / 9.3 km/h - N/A Rain Light Rain
3:15 PM 44.6°F / 7.0°C 42.8°F / 6.0°C 93% 30.22 in / 1023.2 hPa 4.0 miles / 6.4 kilometers South 5.8 mph / 9.3 km/h - N/A Rain Light Rain
3:35 PM 44.6°F / 7.0°C 42.8°F / 6.0°C 93% 30.22 in / 1023.2 hPa 3.0 miles / 4.8 kilometers South 6.9 mph / 11.1 km/h - N/A Rain Light Rain
3:55 PM 44.6°F / 7.0°C 42.8°F / 6.0°C 93% 30.22 in / 1023.2 hPa 5.0 miles / 8.0 kilometers South 4.6 mph / 7.4 km/h - N/A Rain Light Rain
4:15 PM 44.6°F / 7.0°C 42.8°F / 6.0°C 93% 30.21 in / 1022.9 hPa 5.0 miles / 8.0 kilometers South 5.8 mph / 9.3 km/h - N/A Rain Light Rain
4:35 PM 44.6°F / 7.0°C 42.8°F / 6.0°C 93% 30.21 in / 1022.9 hPa 6.0 miles / 9.7 kilometers South 5.8 mph / 9.3 km/h - N/A Rain Light Rain
4:55 PM 44.6°F / 7.0°C 42.8°F / 6.0°C 93% 30.21 in / 1022.9 hPa 5.0 miles / 8.0 kilometers South 4.6 mph / 7.4 km/h - N/A Rain Light Rain
5:15 PM 44.6°F / 7.0°C 42.8°F / 6.0°C 93% 30.21 in / 1022.9 hPa 4.0 miles / 6.4 kilometers South 6.9 mph / 11.1 km/h - N/A Rain Light Rain
5:35 PM 44.6°F / 7.0°C 42.8°F / 6.0°C 93% 30.21 in / 1022.9 hPa 5.0 miles / 8.0 kilometers South 6.9 mph / 11.1 km/h - N/A Rain Light Rain
5:55 PM 44.6°F / 7.0°C 42.8°F / 6.0°C 93% 30.21 in / 1022.9 hPa 5.0 miles / 8.0 kilometers South 5.8 mph / 9.3 km/h - N/A Rain Light Rain
6:15 PM 42.8°F / 6.0°C 42.8°F / 6.0°C 100% 30.21 in / 1022.9 hPa 5.0 miles / 8.0 kilometers South 4.6 mph / 7.4 km/h - N/A Rain Light Rain
6:35 PM 44.6°F / 7.0°C 42.8°F / 6.0°C 93% 30.21 in / 1022.9 hPa 7.0 miles / 11.3 kilometers South 4.6 mph / 7.4 km/h - N/A Rain Light Rain
6:55 PM 44.6°F / 7.0°C 42.8°F / 6.0°C 93% 30.20 in / 1022.6 hPa 7.0 miles / 11.3 kilometers South 5.8 mph / 9.3 km/h - N/A Rain Light Rain
7:15 PM 44.6°F / 7.0°C 42.8°F / 6.0°C 93% 30.20 in / 1022.6 hPa 7.0 miles / 11.3 kilometers South 8.1 mph / 13.0 km/h - N/A   Mostly Cloudy
7:35 PM 44.6°F / 7.0°C 42.8°F / 6.0°C 93% 30.20 in / 1022.6 hPa 7.0 miles / 11.3 kilometers South 5.8 mph / 9.3 km/h - N/A Rain Light Rain
7:55 PM 42.8°F / 6.0°C 42.8°F / 6.0°C 100% 30.20 in / 1022.6 hPa 6.0 miles / 9.7 kilometers South 6.9 mph / 11.1 km/h - N/A Rain Light Rain
8:15 PM 42.8°F / 6.0°C 42.8°F / 6.0°C 100% 30.19 in / 1022.2 hPa 9.0 miles / 14.5 kilometers South 4.6 mph / 7.4 km/h - N/A   Overcast
8:35 PM 44.6°F / 7.0°C 42.8°F / 6.0°C 93% 30.18 in / 1021.9 hPa 10.0 miles / 16.1 kilometers South 5.8 mph / 9.3 km/h - N/A   Overcast
8:55 PM 44.6°F / 7.0°C 42.8°F / 6.0°C 93% 30.18 in / 1021.9 hPa 10.0 miles / 16.1 kilometers South 4.6 mph / 7.4 km/h - N/A   Overcast
9:15 PM 44.6°F / 7.0°C 42.8°F / 6.0°C 93% 30.18 in / 1021.9 hPa 10.0 miles / 16.1 kilometers South 4.6 mph / 7.4 km/h - N/A   Overcast
9:35 PM 44.6°F / 7.0°C 42.8°F / 6.0°C 93% 30.18 in / 1021.9 hPa 10.0 miles / 16.1 kilometers SSW 8.1 mph / 13.0 km/h - N/A   Overcast
9:55 PM 44.6°F / 7.0°C 42.8°F / 6.0°C 93% 30.18 in / 1021.9 hPa 10.0 miles / 16.1 kilometers SSW 10.4 mph / 16.7 km/h - N/A   Overcast
10:15 PM 44.6°F / 7.0°C 42.8°F / 6.0°C 93% 30.18 in / 1021.9 hPa 10.0 miles / 16.1 kilometers SSW 10.4 mph / 16.7 km/h - N/A   Mostly Cloudy
10:35 PM 44.6°F / 7.0°C 42.8°F / 6.0°C 93% 30.18 in / 1021.9 hPa 10.0 miles / 16.1 kilometers SSW 10.4 mph / 16.7 km/h - N/A   Overcast
10:55 PM 44.6°F / 7.0°C 42.8°F / 6.0°C 93% 30.17 in / 1021.6 hPa 10.0 miles / 16.1 kilometers South 10.4 mph / 16.7 km/h - N/A   Overcast
11:15 PM 44.6°F / 7.0°C 42.8°F / 6.0°C 93% 30.17 in / 1021.6 hPa 10.0 miles / 16.1 kilometers SSW 11.5 mph / 18.5 km/h - N/A   Mostly Cloudy
11:55 PM 44.6°F / 7.0°C 41.0°F / 5.0°C 87% 30.16 in / 1021.2 hPa 10.0 miles / 16.1 kilometers South 6.9 mph / 11.1 km/h - N/A   Overcast
Moon Phase
Feb. 03 Feb. 10 Feb. 17 Feb. 25 Mar. 04
Sunrise:07:37 AM (PST) Moon Rise:01:13 AM (PST)2/3
Sunset:05:13 PM (PST) Moon Set:10:51 AM (PST)2/3

Copyright © 2014 The Weather Underground, Inc.